Weather History for Peru, IL

Change the Weather History Date:

Friday, January 4, 2013

  Actual Average Record
Temperature  
Mean Temperature 24 °F -  
Max Temperature 35 °F 31 °F 48 °F (2007)
Min Temperature 13 °F 12 °F -13 °F (1969)
Degree Days  
Heating Degree Days 41    
Moisture  
Dew Point 19 °F    
Average Humidity 75    
Maximum Humidity 86    
Minimum Humidity 58    
Precipitation  
Precipitation 0.00 in - - ()
Sea Level Pressure  
Sea Level Pressure 30.24 in    
Wind  
Wind Speed 13 mph (WSW)    
Max Wind Speed 21 mph    
Max Gust Speed 29 mph    
Visibility 10 miles    
Events      
Averages and records for this station are not official NWS values.
T = Trace of Precipitation, MM = Missing Value Source: NWS Daily Summary

Daily Weather History Graph

Daily Weather History Graph

Search for Another Location

Airport:

Trip Planner

Search our weather history database for the weather conditions in past years. The results will help you decide how hot, cold, wet, or windy it might be!

Date:

Astronomy

Jan. 04, 2013 Rise Set
Actual Time 7:22 AM CST 4:40 PM CST
Civil Twilight 6:51 AM CST 5:11 PM CST
Nautical Twilight 6:17 AM CST 5:46 PM CST
Astronomical Twilight 5:43 AM CST 6:20 PM CST
Moon No Moon Rise 11:00 AM CST (1/4)
Length of Visible Light 10h 20m
Length of Day
9h 18m
Waning Gibbous, 55% of the Moon is Illuminated
Jan 4
Waning Gibbous
Jan 4
Last Quarter
Jan 11
New
Jan 18
First Quarter
Jan 26
Full

Hourly Weather History & Observations

Time (CST) Temp. Windchill Dew Point Humidity Pressure Visibility Wind Dir Wind Speed Gust Speed Precip Events Conditions
12:15 AM 16.3 °F 3.4 °F 11.5 °F 81% 30.30 in 10.0 mi West 11.5 mph - N/A   Clear
12:35 AM 15.8 °F 3.4 °F 11.3 °F 82% 30.30 in 10.0 mi West 10.4 mph 17.3 mph N/A   Clear
12:55 AM 15.4 °F 2.3 °F 10.8 °F 82% 30.29 in 10.0 mi West 11.5 mph - N/A   Clear
1:15 AM 14.9 °F 2.3 °F 10.4 °F 82% 30.28 in 10.0 mi WSW 10.4 mph - N/A   Clear
1:35 AM 14.9 °F 2.3 °F 10.2 °F 82% 30.28 in 10.0 mi WSW 10.4 mph - N/A   Clear
1:55 AM 14.9 °F 1.6 °F 10.4 °F 82% 30.28 in 10.0 mi WSW 11.5 mph - N/A   Clear
2:15 AM 14.7 °F 2.9 °F 10.2 °F 82% 30.28 in 10.0 mi WSW 9.2 mph - N/A   Clear
2:35 AM 14.5 °F 1.9 °F 10.0 °F 82% 30.28 in 10.0 mi WSW 10.4 mph - N/A   Clear
2:55 AM 14.4 °F 1.6 °F 10.0 °F 83% 30.28 in 10.0 mi WSW 10.4 mph - N/A   Clear
3:15 AM 14.4 °F 1.6 °F 10.0 °F 83% 30.28 in 10.0 mi WSW 10.4 mph - N/A   Clear
5:35 AM 14.4 °F 1.6 °F 10.4 °F 84% 30.27 in 10.0 mi SW 10.4 mph - N/A   Clear
5:55 AM 14.4 °F 1.6 °F 10.4 °F 84% 30.27 in 10.0 mi SW 10.4 mph - N/A   Clear
6:15 AM 13.6 °F -0.7 °F 9.9 °F 85% 30.26 in 10.0 mi SW 12.7 mph - N/A   Clear
6:35 AM 13.6 °F -0.7 °F 9.9 °F 85% 30.25 in 10.0 mi SW 12.7 mph - N/A   Clear
6:55 AM 13.6 °F 1.6 °F 9.9 °F 85% 30.26 in 10.0 mi SW 9.2 mph - N/A   Clear
7:15 AM 14.0 °F 2.0 °F 10.4 °F 86% 30.25 in 10.0 mi WSW 9.2 mph - N/A   Clear
7:35 AM 14.9 °F 1.6 °F 11.3 °F 86% 30.26 in 10.0 mi WSW 11.5 mph - N/A   Clear
7:55 AM 16.7 °F 3.8 °F 12.6 °F 84% 30.25 in 10.0 mi SW 11.5 mph 19.6 mph N/A   Clear
8:15 AM 18.3 °F 5.2 °F 13.6 °F 82% 30.25 in 10.0 mi WSW 12.7 mph - N/A   Clear
8:35 AM 19.8 °F 5.4 °F 14.7 °F 81% 30.25 in 10.0 mi WSW 16.1 mph - N/A   Clear
8:55 AM 20.8 °F 7.9 °F 15.3 °F 79% 30.25 in 10.0 mi WSW 13.8 mph - N/A   Clear
9:15 AM 22.3 °F 9.2 °F 16.5 °F 79% 30.25 in 10.0 mi WSW 15.0 mph - N/A   Clear
9:35 AM 24.4 °F 11.9 °F 18.0 °F 76% 30.26 in 10.0 mi WSW 15.0 mph - N/A   Clear
9:55 AM 26.8 °F 14.1 °F 19.6 °F 74% 30.26 in 10.0 mi WSW 17.3 mph - N/A   Clear
10:15 AM 28.2 °F 15.5 °F 20.3 °F 72% 30.26 in 10.0 mi WSW 18.4 mph 26.5 mph N/A   Clear
10:35 AM 29.3 °F 16.6 °F 20.5 °F 70% 30.25 in 10.0 mi WSW 19.6 mph 23.0 mph N/A   Clear
10:55 AM 30.2 °F 18.9 °F 20.8 °F 68% 30.24 in 10.0 mi WSW 16.1 mph 21.9 mph N/A   Clear
11:15 AM 31.5 °F 20.1 °F 21.2 °F 66% 30.24 in 10.0 mi WSW 17.3 mph 26.5 mph N/A   Clear
11:35 AM 32.5 °F 21.2 °F 21.9 °F 65% 30.23 in 10.0 mi WSW 18.4 mph 21.9 mph N/A   Clear
11:55 AM 33.1 °F 22.2 °F 21.9 °F 64% 30.23 in 10.0 mi WSW 17.3 mph - N/A   Clear
12:15 PM 34.3 °F 23.2 °F 22.1 °F 61% 30.21 in 10.0 mi WSW 19.6 mph 25.3 mph N/A   Clear
12:35 PM 34.7 °F 23.4 °F 21.9 °F 60% 30.21 in 10.0 mi West 20.7 mph 28.8 mph N/A   Clear
12:55 PM 34.7 °F 23.7 °F 22.1 °F 60% 30.20 in 10.0 mi WSW 19.6 mph 26.5 mph N/A   Clear
1:15 PM 35.1 °F 25.5 °F 22.1 °F 59% 30.19 in 10.0 mi WSW 15.0 mph 24.2 mph N/A   Clear
1:35 PM 35.6 °F 24.5 °F 22.3 °F 58% 30.19 in 10.0 mi WSW 20.7 mph - N/A   Clear
1:55 PM 35.2 °F 24.7 °F 22.1 °F 59% 30.19 in 10.0 mi WSW 18.4 mph 26.5 mph N/A   Clear
2:15 PM 35.1 °F 23.8 °F 22.5 °F 60% 30.18 in 10.0 mi WSW 20.7 mph 27.6 mph N/A   Clear
2:35 PM 35.2 °F 24.1 °F 22.6 °F 60% 30.19 in 10.0 mi WSW 20.7 mph 27.6 mph N/A   Clear
2:55 PM 35.6 °F 24.5 °F 22.8 °F 60% 30.19 in 10.0 mi WSW 20.7 mph 27.6 mph N/A   Clear
3:15 PM 35.4 °F 24.3 °F 23.0 °F 61% 30.20 in 10.0 mi WSW 20.7 mph 25.3 mph N/A   Clear
3:35 PM 34.9 °F 25.3 °F 23.0 °F 62% 30.20 in 10.0 mi WSW 15.0 mph 19.6 mph N/A   Clear
3:55 PM 34.3 °F 24.6 °F 22.8 °F 63% 30.20 in 10.0 mi WSW 15.0 mph 24.2 mph N/A   Clear
4:15 PM 33.3 °F 23.7 °F 23.0 °F 66% 30.21 in 10.0 mi SW 13.8 mph 19.6 mph N/A   Clear
4:35 PM 32.0 °F 22.1 °F 23.0 °F 69% 30.21 in 10.0 mi WSW 13.8 mph 23.0 mph N/A   Clear
4:55 PM 31.6 °F 21.6 °F 23.4 °F 71% 30.21 in 10.0 mi WSW 13.8 mph - N/A   Clear
5:15 PM 31.1 °F 21.4 °F 23.2 °F 72% 30.22 in 10.0 mi WSW 12.7 mph - N/A   Clear
5:35 PM 31.1 °F 21.9 °F 23.4 °F 73% 30.23 in 10.0 mi WSW 11.5 mph - N/A   Clear
5:55 PM 30.9 °F 21.2 °F 23.4 °F 74% 30.23 in 10.0 mi WSW 12.7 mph - N/A   Clear
6:15 PM 30.9 °F 22.2 °F 23.4 °F 74% 30.23 in 10.0 mi WSW 10.4 mph 18.4 mph N/A   Clear
6:35 PM 30.7 °F 20.9 °F 23.2 °F 74% 30.23 in 10.0 mi SW 12.7 mph - N/A   Clear
6:55 PM 30.2 °F 20.8 °F 23.0 °F 75% 30.23 in 10.0 mi SW 11.5 mph 18.4 mph N/A   Clear
7:15 PM 30.2 °F 20.2 °F 23.0 °F 75% 30.23 in 10.0 mi SW 12.7 mph 18.4 mph N/A   Clear
7:35 PM 30.2 °F 21.3 °F 23.0 °F 75% 30.24 in 10.0 mi SW 10.4 mph - N/A   Clear
7:55 PM 30.0 °F 20.0 °F 23.2 °F 76% 30.24 in 10.0 mi SW 12.7 mph 17.3 mph N/A   Clear
8:15 PM 29.8 °F 20.3 °F 23.2 °F 76% 30.24 in 10.0 mi WSW 11.5 mph - N/A   Clear
8:35 PM 29.3 °F 20.2 °F 23.0 °F 77% 30.24 in 10.0 mi WSW 10.4 mph - N/A   Clear
8:55 PM 29.1 °F 19.4 °F 23.0 °F 78% 30.24 in 10.0 mi WSW 11.5 mph - N/A   Clear
9:15 PM 29.1 °F 18.9 °F 23.0 °F 78% 30.24 in 10.0 mi WSW 12.7 mph - N/A   Clear
9:35 PM 28.9 °F 19.8 °F 23.0 °F 78% 30.24 in 10.0 mi WSW 10.4 mph - N/A   Clear
9:55 PM 28.4 °F 20.4 °F 23.0 °F 80% 30.24 in 10.0 mi WSW 8.1 mph - N/A   Clear
10:15 PM 27.7 °F 20.4 °F 22.5 °F 81% 30.24 in 10.0 mi SW 6.9 mph - N/A   Clear
10:35 PM 27.1 °F 20.7 °F 22.1 °F 81% 30.23 in 10.0 mi SW 5.8 mph - N/A   Clear
10:55 PM 27.1 °F 18.9 °F 22.1 °F 81% 30.24 in 10.0 mi SW 8.1 mph - N/A   Clear
11:15 PM 26.4 °F 18.0 °F 21.9 °F 83% 30.23 in 10.0 mi SW 8.1 mph - N/A   Clear
11:35 PM 26.2 °F 16.4 °F 22.1 °F 84% 30.23 in 10.0 mi SW 10.4 mph - N/A   Clear
11:55 PM 27.1 °F 17.5 °F 22.5 °F 83% 30.23 in 10.0 mi SW 10.4 mph - N/A   Clear